Retour au catalogue

NOAA 16 DEB

ActifSSO
NORAD 41423·DEBRIS·🇺🇸 United States

Lancé Sep 21, 2000 depuis Vandenberg Space Force Base

Loading…

Prochains Passages (prochaines 24 heures)

TLE

FraisSource: Space-Track

Époque: Sep 13, 2026, 11:28 UTC

1 41423U 00055LC  26256.47827397  .00002881  00000-0  99695-3 0  9992
2 41423  98.6684 347.1488 0009741 268.0464  91.9606 14.36463137550158

Suivez NOAA 16 DEB en temps réel avec AllMySat

Download on the App Store